Regional Weather Roundup
Issued by NWS Cleveland, OH

Home | Current Version | Previous Version | Text Only | Print | Product List | Glossary Off
Versions: 1 2 3 4 5 6 7 8 9 10 11 12 13 14 15 16 17 18 19 20 21 22 23 24 25 26 27 28 29 30 31 32 33 34 35 36 37 38 39 40 41 42 43 44 45 46 47 48 49 50

000
ASUS41 KCLE 140310
RWRCLE
OHIO REGIONAL WEATHER ROUNDUP
NATIONAL WEATHER SERVICE CLEVELAND, OH
1100 PM EDT SUN JUL 13 2014

NOTE: "FAIR" INDICATES FEW OR NO CLOUDS BELOW 12,000 FEET WITH NO
SIGNIFICANT WEATHER AND/OR OBSTRUCTIONS TO VISIBILITY.

OHZ001>008-015>018-024>027-034-035-043-044-140400-
   NORTHWEST OHIO

CITY           SKY/WX    TMP DP  RH WIND       PRES   REMARKS
DEFIANCE       CLEAR     71  64  78 CALM      29.92R
FINDLAY        CLEAR     70  64  81 S5        29.91S
TOLEDO EXPRESS CLEAR     73  63  70 W5        29.91R
TOLEDO EXEC    CLEAR     74  62  66 W5        29.91R
LIMA           CLEAR     73  66  78 CALM      29.93S
$$

OHZ009>014-019>023-028>033-038-089-140400-
   NORTHEAST OHIO

CITY           SKY/WX    TMP DP  RH WIND       PRES   REMARKS
CLE-HOPKINS    PTCLDY    73  65  75 S6        29.92S
CLE-LAKEFRONT  CLEAR     76  64  66 SW7       29.89R
CUY CO. ARPT   CLEAR     77  64  65 SW7       29.92R
LORAIN-ELYRIA  CLEAR     72  67  84 S3        29.92S
ASHTABULA      CLEAR     67  62  84 CALM      29.92R
AKRON-CANTON   PTCLDY    72  66  81 CALM      29.94R
WOOSTER        CLEAR     69  65  86 CALM      29.94S
MANSFIELD      CLEAR     73  65  75 W5        29.95R
YOUNGSTOWN     PTCLDY    65  64  97 CALM      29.94R
$$

OHZ042-051>053-060>062-070>072-077>081-140400-
  SOUTHWEST OHIO

CITY           SKY/WX    TMP DP  RH WIND       PRES   REMARKS
CINC-COVINGTON TSTM      73  72  94 SW6       29.98R
CINC-LUNKEN    LGT RAIN  74  73  97 CALM      29.95R FOG
HAMILTON       CLOUDY    73  72  96 CALM      29.95R FOG
DAYTON         PTCLDY    72  69  90 SW6       29.96R
WRIGHT-PAT AFB CLEAR     71  70  99 SW5       29.94S
DAYTON GENERAL MOCLDY    73  71  93 SW3       29.95S
WILMINGTON     MOCLDY    70  68  93 SW6       29.96R
$$

OHZ036-037-039>041-045>050-054>059-063>069-073>076-082>088-140400-
  CENTRAL AND SOUTHEAST OHIO

CITY           SKY/WX    TMP DP  RH WIND       PRES   REMARKS
COLUMBUS       PTCLDY    74  70  87 S6        29.93R
OSU AIRPORT    PTCLDY    71  67  87 W6        29.94R
BOLTON FIELD   PTCLDY    71  70  98 SW3       29.95R
RICKENBACK AFB CLOUDY    72  67  84 S7        29.94R
NEWARK         MOCLDY    72  69  90 S5        29.94S
MARION         CLEAR     72  66  81 CALM      29.93S
LANCASTER      PTCLDY    72  69  90 CALM      29.96R
ZANESVILLE     MOCLDY    72  69  90 S5        29.95R
NEW PHILLY     PTCLDY    71  70  96 MISG      29.94R
$$



USA.gov is the U.S. government's official web portal to all federal, state and local government web resources and services.